Flint, MI

2:46 PM EDT on September 26, 2017 (GMT -0400)
Bishop International

Weather History for KFNT - August, 2013

Change the Weather History Date:

Wednesday, August 7, 2013

  Actual Average Record
Temperature  
Mean Temperature 75 °F 70 °F  
Max Temperature 85 °F 81 °F 99 °F (1931)
Min Temperature 64 °F 59 °F 46 °F (1989)
Degree Days  
Heating Degree Days 0 1  
Month to date heating degree days 2 6  
Since 1 June heating degree days 52 87  
Since 1 July heating degree days 11 21  
Cooling Degree Days 10 5  
Month to date cooling degree days 26 40  
Year to date cooling degree days 528 371  
Since 1 June cooling degree days 449 339  
Growing Degree Days 24 (Base 50)    
Moisture  
Dew Point 65 °F    
Average Humidity 74    
Maximum Humidity 93    
Minimum Humidity 55    
Precipitation  
Precipitation 1.05 in 0.11 in 1.28 in (1937)
Month to date precipitation 1.25 0.74  
Year to date precipitation 24.26 18.12  
Snow  
Snow 0.00 in 0.00 in 0.00 in ()
Month to date snowfall 0.0 0.0  
Since 1 June snowfall 0.0 0.0  
Since 1 July snowfall 0.0 0.0  
Snow Depth 0.00 in    
Sea Level Pressure  
Sea Level Pressure 29.86 in    
Wind  
Wind Speed 8 mph (SW)    
Max Wind Speed 33 mph    
Max Gust Speed 46 mph    
Visibility 8 miles    
Events Rain , Thunderstorm    
T = Trace of Precipitation, MM = Missing Value Source: NWS Daily Summary

Daily Weather History Graph

Daily Weather History Graph

Search for Another Location

Airport or City:

Trip Planner

Search our weather history database for the weather conditions in past years. The results will help you decide how hot, cold, wet, or windy it might be!

Date:

Astronomy

Aug. 07, 2013 Rise Set
Actual Time 6:32 AM EDT 8:48 PM EDT
Civil Twilight 6:01 AM EDT 9:19 PM EDT
Nautical Twilight 5:22 AM EDT 9:58 PM EDT
Astronomical Twilight 4:38 AM EDT 10:41 PM EDT
Moon 7:23 AM EDT (8/7) 8:51 PM EDT (8/7)
Length of Visible Light 15h 18m
Length of Day
14h 15m
New Moon, 1% of the Moon is Illuminated
Aug 7
New Moon
Aug 14
First Quarter
Aug 20
Full
Aug 28
Last Quarter
Sep 5
New

Hourly Weather History & Observations

Time (EDT) Temp. Heat Index Dew Point Humidity Pressure Visibility Wind Dir Wind Speed Gust Speed Precip Events Conditions
12:53 AM 70.0 °F - 66.0 °F 87% 29.89 in 7.0 mi SSW 6.9 mph - N/A   Partly Cloudy
1:53 AM 69.1 °F - 64.9 °F 87% 29.88 in 6.0 mi SSW 4.6 mph - N/A   Clear
2:53 AM 69.1 °F - 64.9 °F 87% 29.88 in 6.0 mi SSW 3.5 mph - N/A   Clear
3:53 AM 69.1 °F - 64.9 °F 87% 29.85 in 6.0 mi South 4.6 mph - N/A   Clear
4:53 AM 66.0 °F - 63.0 °F 90% 29.84 in 4.0 mi South 6.9 mph - N/A   Clear
5:53 AM 70.0 °F - 66.0 °F 87% 29.82 in 6.0 mi SSW 10.4 mph - N/A   Mostly Cloudy
6:27 AM 71.6 °F - 66.2 °F 83% 29.83 in 7.0 mi SW 12.7 mph 23.0 mph N/A Thunderstorm Thunderstorm
6:35 AM 68.0 °F - 64.4 °F 88% 29.90 in 1.8 mi NW 28.8 mph 46.0 mph 0.00 in Rain , Thunderstorm Light Thunderstorms and Rain
6:41 AM 64.4 °F - 60.8 °F 88% 29.92 in 0.8 mi WNW 18.4 mph 46.0 mph 0.27 in Rain , Thunderstorm Heavy Thunderstorms and Rain
6:48 AM 64.4 °F - 60.8 °F 88% 29.92 in 1.2 mi West 10.4 mph 26.5 mph 0.39 in Rain , Thunderstorm Heavy Thunderstorms and Rain
6:53 AM 64.0 °F - 61.0 °F 90% 29.91 in 2.5 mi WNW 9.2 mph 20.7 mph 0.42 in Rain , Thunderstorm Thunderstorms and Rain
7:16 AM 64.4 °F - 60.8 °F 88% 29.89 in 8.0 mi Calm Calm - 0.12 in Rain , Thunderstorm Light Thunderstorms and Rain
7:23 AM 64.4 °F - 60.8 °F 88% 29.89 in 10.0 mi South 5.8 mph - 0.12 in Rain , Thunderstorm Light Rain
7:44 AM 64.4 °F - 60.8 °F 88% 29.88 in 10.0 mi SSE 5.8 mph - 0.12 in   Scattered Clouds
7:53 AM 64.0 °F - 61.0 °F 90% 29.87 in 10.0 mi South 6.9 mph - 0.12 in   Partly Cloudy
8:53 AM 66.0 °F - 62.1 °F 87% 29.89 in 10.0 mi SSW 6.9 mph - N/A   Mostly Cloudy
9:53 AM 66.9 °F - 63.0 °F 87% 29.82 in 7.0 mi SSE 19.6 mph 24.2 mph 0.00 in Rain Light Rain
10:53 AM 71.1 °F - 63.0 °F 75% 29.84 in 10.0 mi South 8.1 mph - 0.01 in   Clear
11:53 AM 77.0 °F - 64.9 °F 66% 29.83 in 10.0 mi WSW 9.2 mph - N/A   Clear
12:53 PM 81.0 °F 82.5 °F 64.0 °F 56% 29.83 in 10.0 mi SW 15.0 mph 19.6 mph N/A   Clear
1:53 PM 82.0 °F 84.1 °F 66.0 °F 58% 29.83 in 10.0 mi WSW 12.7 mph - N/A   Clear
2:53 PM 82.0 °F 84.1 °F 66.0 °F 58% 29.83 in 10.0 mi SW 11.5 mph - N/A   Scattered Clouds
3:53 PM 84.0 °F 87.0 °F 68.0 °F 58% 29.83 in 10.0 mi WSW 13.8 mph - N/A   Mostly Cloudy
4:53 PM 84.9 °F 87.6 °F 66.9 °F 55% 29.83 in 10.0 mi WSW 10.4 mph - N/A   Clear
5:53 PM 82.9 °F 85.8 °F 68.0 °F 60% 29.83 in 10.0 mi SW 11.5 mph - N/A   Partly Cloudy
6:53 PM 79.0 °F - 70.0 °F 74% 29.83 in 3.0 mi WSW 3.5 mph - 0.02 in Rain Light Rain
7:53 PM 78.1 °F - 71.1 °F 79% 29.83 in 10.0 mi WSW 4.6 mph - 0.00 in   Clear
8:05 PM 78.8 °F - 71.6 °F 78% 29.85 in 9.0 mi West 4.6 mph - N/A Thunderstorm Scattered Clouds
8:12 PM 75.2 °F - 71.6 °F 89% 29.83 in 1.2 mi NNW 24.2 mph 31.1 mph 0.02 in Rain , Thunderstorm Heavy Thunderstorms and Rain
8:21 PM 73.4 °F - 64.4 °F 73% 29.86 in 5.0 mi NNW 11.5 mph 33.4 mph 0.43 in Rain , Thunderstorm Heavy Thunderstorms and Rain
8:28 PM 73.4 °F - 66.2 °F 78% 29.85 in 5.0 mi NNW 6.9 mph 18.4 mph 0.48 in Rain , Thunderstorm Light Thunderstorms and Rain
8:41 PM 73.4 °F - 66.2 °F 78% 29.85 in 10.0 mi Calm Calm - 0.48 in   Mostly Cloudy
8:53 PM 73.0 °F - 66.9 °F 81% 29.84 in 10.0 mi NNE 5.8 mph - 0.48 in   Partly Cloudy
9:09 PM 71.6 °F - 68.0 °F 88% 29.86 in 9.0 mi SSW 3.5 mph - N/A Thunderstorm Partly Cloudy
9:49 PM 73.4 °F - 68.0 °F 83% 29.88 in 10.0 mi South 5.8 mph - N/A   Overcast
9:53 PM 73.0 °F - 68.0 °F 84% 29.87 in 10.0 mi South 3.5 mph - N/A   Overcast
10:53 PM 72.0 °F - 69.1 °F 91% 29.91 in 9.0 mi WNW 4.6 mph - N/A   Overcast
11:53 PM 73.0 °F - 66.9 °F 81% 29.92 in 10.0 mi NNW 4.6 mph - N/A   Mostly Cloudy